AirNav   Pilot Hours Calculator
 
 1373 users online  

KHHR Jack Northrop Field/Hawthorne Municipal Airport
Hawthorne, California, USA

GOING TO HAWTHORNE?


FAA INFORMATION EFFECTIVE 31 JANUARY 2019

Location

FAA Identifier: HHR
Lat/Long: 33-55-22.3000N / 118-20-06.3000W
33-55.371667N / 118-20.105000W
33.9228611 / -118.3350833
(estimated)
Elevation: 65.9 ft. / 20.1 m (surveyed)
Variation: 14E (1985)
From city: 1 mile E of HAWTHORNE, CA
Time zone: UTC -8 (UTC -7 during Daylight Saving Time)
Zip code: 90250

Airport Operations

Airport use: Open to the public
Activation date: 10/1942
Control tower: yes
ARTCC: LOS ANGELES CENTER
FSS: HAWTHORNE FLIGHT SERVICE STATION
NOTAMs facility: HHR (NOTAM-D service available)
Attendance: M-F 0500-2200, ALL SAT 0600-2100, ALL SUN 0600-2200
Pattern altitude: 1165.9 ft. MSL
TPA FOR TURBINE & HIGH PER ACFT 1600 (1534), LGT ACFT 1100 (1034), HELS 700 (634).
Wind indicator: lighted
Segmented circle: yes
Lights: WHEN ATCT CLSD ACTVT MIRL RY 07/25 & ODALS RY 25 - CTAF.
Beacon: white-green (lighted land airport)
Operates sunset to sunrise.
Taxiway lights: N EDGE OF N TWY UNLGTD; WEST 1000' OF SOUTH TWY UNLGTD.

Airport Communications

CTAF: 121.1
ATIS: 118.4
WX ASOS: PHONE 310-973-8930
HAWTHORNE GROUND: 125.1 [0600-2200]
HAWTHORNE TOWER: 121.1 257.8 [0600-2200]
SOCAL APPROACH: 124.3(146-245) 124.9(069-145) 125.2(246-342) 128.5(343-068)
SOCAL DEPARTURE: 124.3
IC: 124.9(069-145)
IRNMN STAR: 124.5
RYDRR STAR: 124.5
WX ASOS at LAX (4 nm W): PHONE 310-568-1486
WX AWOS-3PT at CPM (5 nm SE): 127.150 (310-631-4958)
WX ASOS at SMO (8 nm NW): PHONE 310-392-6453
WX ASOS at LGB (11 nm SE): PHONE 562-424-0572
WX ASOS at BUR (17 nm N): PHONE 818-841-1384
WX AWOS-3PT at EMT (18 nm NE): 118.75 ((626) 444-1107)
WX ASOS at FUL (18 nm E): PHONE 714-870-1372
WX ASOS at VNY (19 nm NW): PHONE 818-904-9213
  • FOR CLNC DEL WHEN ATCT CLSD CALL SOCAL APCH (800) 448-3724.

Nearby radio navigation aids

VOR radial/distance  VOR name  Freq  Var
LAXr082/4.9LOS ANGELES VORTAC113.6015E
SMOr116/8.0SANTA MONICA VOR/DME110.8015E
SLIr286/16.3SEAL BEACH VORTAC115.7015E
VNYr142/19.6VAN NUYS VOR/DME113.1015E
POMr236/28.8POMONA VORTAC110.4015E
SXCr352/33.1SANTA CATALINA VORTAC111.4015E
ELBr282/33.6EL TORO VOR/DME117.2014E
VTUr093/37.4VENTURA VOR/DME108.2015E
FIMr119/37.6FILLMORE VORTAC112.5015E

 
NDB name  Hdg/Dist  Freq  Var  ID
EL MONTE222/18.135915EEMT . -- -

Airport Services

Fuel available: 100LL JET-A
100LL FUEL AVBL 24 HRS SELF-SERVICE. JET A FUEL AVBL 0500-2200 M-F, 0600-2100 SAT, 0600-2200 SUN; AFTER HRS SVC CALL JET CENTER LOS ANGELES (310) 676-4673 OR HAWTHORNE HANGAR OPERATIONS (310) 644-0400.
Parking: tiedowns
Airframe service: MAJOR
Powerplant service: MAJOR
Bottled oxygen: HIGH
Bulk oxygen: HIGH

Runway Information

Runway 7/25

Dimensions: 4884 x 100 ft. / 1489 x 30 m
Surface: asphalt, in good condition
Weight bearing capacity: 
Single wheel: 30.0
Double wheel: 60.0
Double tandem: 90.0
Runway edge lights: medium intensity
RUNWAY 7  RUNWAY 25
Latitude: 33-55.348095N33-55.393648N
Longitude: 118-20.587365W118-19.623055W
Elevation: 65.9 ft.60.8 ft.
Gradient: 0.1%0.1%
Traffic pattern: rightleft
Runway heading: 073 magnetic, 087 true253 magnetic, 267 true
Displaced threshold: 905 ft.460 ft.
Declared distances: TORA:4956 TODA:4956 ASDA:4736 LDA:3765TORA:4956 TODA:4956 ASDA:4656 LDA:4193
Markings: nonprecision, in fair conditionnonprecision, in fair condition
Visual slope indicator: 2-box VASI on right (3.25 degrees glide path)4-box VASI on right (3.50 degrees glide path)
Approach lights: ODALS: omnidirectional approach lighting system
Runway end identifier lights: noyes
Touchdown point: yes, no lightsyes, no lights
Instrument approach: LOCALIZER
Obstructions: 13 ft. road, 200 ft. from runway
LOC AT RY END. STREET AT 110 FT FROM RY END 07 +37 FT POLE 100 FT FROM E OR 250 FT RIGHT; +10 FT BLDG 100 FT FROM E OR 200 FT RIGHT.
23 ft. pole, lighted, 200 ft. from runway, 100 ft. right of centerline
+8 FT BLAST FENCE LEFT AT 70 FT ON CNTRLN; +23 FT LGT STD AT 110 FT; STREET AT 110 FT FM RY END 25; 500 FT LEFT & RIGHT OF CNTRLN; +6 FT FENCE LEFT AT 105 FT FM EOR 500 FT LEFT & RIGHT OF CNTRLN.

Airport Ownership and Management from official FAA records

Ownership: Publicly-owned
Owner: CITY OF HAWTHORNE
CITY HALL, 4455 W 126 ST.
HAWTHORNE, CA 90250
Phone 310-349-2900
Manager: MALEK TAWEIL
12101 S.CRENSHAW BLVD, SUITE # 3
HAWTHORNE, CA 90250
Phone 310-349-1637
EMAIL: MTAWEIL@CITYOFHAWTHORNE.ORG

Airport Operational Statistics

Aircraft based on the field: 177
Single engine airplanes: 135
Multi engine airplanes: 27
Jet airplanes: 7
Helicopters: 8
    
Aircraft operations: avg 220/day *
52% transient general aviation
47% local general aviation
1% military
<1% air taxi
* for 12-month period ending 31 October 2014

Additional Remarks

TGL, STOP AND GO LDG AND LOW APCH OPNS FOR ALL ACFT INCLG HELS LTD TO 1000-1700 DLY.
NO PAT OPNS, NO TAXI-BACK OPNS MON-FRI 2200-0800, SAT-SUN 2200-1000.
RWY 25 RUNUP SOUTH OF S TWY 900 FT WEST OF AER 25.
N TWY WEST OF E TWY DESIGNATED NON-MOVEMENT AREA.
FOR NOISE ABATEMENT INFO CTC ARPT SUPVR (310) 349-1637 OR 1636.
NO FRMN TKOFS AUTH.
RWY 25 TOUCH AND GO, STOP AND GO, AND INT TKOFS ARE REQSTD TO BE AIRBORNE BY D TWY.
HOVER WORK LTD TO N TWY BTN C AND D TWYS.
ALL PISTON ACFT MUST BE EQUIPPED WITH MUFFLER SYS.
OBSTN PT 77: HNGRS, PLINES, BLDG-ANT ON RWY 07; POLES & TRML ON RWY 25.
BE ALERT TO 8 FT BLAST FENCE AER 25.
NUMEROUS FLOCKS OF BIRDS ON AND INVOF ARPT.

Instrument Procedures

NOTE: All procedures below are presented as PDF files. If you need a reader for these files, you should download the free Adobe Reader.

NOT FOR NAVIGATION. Please procure official charts for flight.
FAA instrument procedures published for use from 31 January 2019 at 0901Z to 28 February 2019 at 0900Z.

 
STARs - Standard Terminal Arrivals
IRNMN TWO (RNAV)   2 pages: [1] [2] (361KB)
RYDRR TWO (RNAV)   2 pages: [1] [2] (388KB)
 
IAPs - Instrument Approach Procedures
RNAV (GPS) RWY 25   download (271KB)
LOC RWY 25   download (285KB)
VOR RWY 25   download (257KB)
NOTE: Special Alternate Minimums apply   download (63KB)
NOTE: Special Take-Off Minimums/Departure Procedures apply   download (178KB)

Other nearby airports with instrument procedures:

KLAX - Los Angeles International Airport (4 nm W)
KTOA - Zamperini Field Airport (7 nm S)
KSMO - Santa Monica Municipal Airport (8 nm NW)
KLGB - Long Beach Airport (Daugherty Field) (11 nm SE)
KSLI - Los Alamitos Army Airfield (16 nm SE)
KBUR - Bob Hope Airport (17 nm N)
KEMT - San Gabriel Valley Airport (18 nm NE)
KFUL - Fullerton Municipal Airport (18 nm E)
KVNY - Van Nuys Airport (19 nm NW)
 
Loc | Ops | Rwys | IFR | FBO | Links
Com | Nav | Svcs | Stats | Notes
Area around KHHR (Jack Northrop Field/Hawthorne Municipal Airport)
 
Road maps at: MapQuest Bing Google
 
Aerial photo
WARNING: Photo may not be current or correct
Aerial photo of KHHR (Jack Northrop Field/Hawthorne Municipal Airport)
Photo by focalflight.com
Photo taken 28-Apr-2015
looking northeast.

Do you have a better or more recent aerial photo of Jack Northrop Field/Hawthorne Municipal Airport that you would like to share? If so, please send us your photo.

 
Sectional chart

 
Airport diagram
CAUTION: Diagram may not be current
Diagram of KHHR (Jack Northrop Field/Hawthorne Municipal Airport)
Download PDF
of official airport diagram from the FAA

 
Airport distance calculator
Flying to Jack Northrop Field/Hawthorne Municipal Airport? Find the distance to fly.

From to KHHR

Sunrise and sunset
Times for 15-Feb-2019
 Local
(UTC-8)
 Zulu
(UTC)
Morning civil twilight06:1314:13
Sunrise06:3914:39
Sunset17:3601:36
Evening civil twilight18:0202:02

Current date and time
Zulu (UTC)  15-Feb-2019 18:34:20
Local (UTC-8)  15-Feb-2019 10:34:20
 
METAR
KHHR 151753Z 00000KT 10SM CLR 14/08 A3013 RMK AO2 SLP202 T01440078 10144 20106 51017
KLAX 
2nm W 
151753Z 28003KT 8SM SCT022 SCT050 BKN180 14/08 A3013 RMK AO2 SLP201 T01440083 10144 20100 51018
KSMO 
8nm NW 
151751Z 00000KT 10SM SCT027 SCT060 14/07 A3013 RMK AO2 SLP202 T01390072 10144 20089 51018
KTOA 
8nm S 
151750Z 00000KT 10SM SCT017 BKN110 14/08 A3012
KCQT 
9nm NE 
151747Z AUTO VRB04KT 10SM SCT027 14/07 A3012 RMK AO2 SLP199 T01440072 10144 20094 51011
KLGB 
11nm SE 
151753Z 00000KT 9SM FEW026 BKN039 BKN046 15/09 A3013 RMK AO2 SLP203 T01500094 10150 20094 51016
KBUR 
17nm N 
151753Z VRB04KT 10SM SCT055 12/06 A3012 RMK AO2 SLP192 T01220061 10122 20083 51016 $
KSLI 
18nm SE 
151758Z 00000KT 7SM FEW050 SCT150 BKN200 15/10 A3013 RMK AO2A SLP206 T01530099 10153 20081 52015
KFUL 
18nm E 
151753Z 31004KT 10SM CLR 15/08 A3012 RMK AO2 SLP200 T01500078 10156 20094 51013
KEMT 
18nm NE 
151745Z 00000KT 10SM SCT025 SCT050 14/09 A3014
TAF
KLAX 
2nm W 
151740Z 1518/1624 23005KT P6SM VCSH SCT030 BKN200 FM152000 23011KT P6SM -SHRA SCT015 OVC025 FM152300 25014KT 4SM -SHRA BR SCT015 OVC025 FM160300 26014KT P6SM -SHRA BKN025 OVC035 FM160600 28017G23KT P6SM VCSH BKN025 OVC035 FM160900 30012KT P6SM SCT250 FM161400 30009KT P6SM SCT250 FM161800 28014KT P6SM SCT250 FM162000 27018G25KT P6SM SCT100 BKN200
KSMO 
8nm NW 
151740Z 1518/1618 06004KT P6SM VCSH SCT030 BKN200 FM152000 21009KT P6SM -SHRA BKN015 OVC025 FM152300 23007KT 4SM -SHRA BR SCT008 OVC015 FM160300 26008KT P6SM -SHRA SCT015 OVC025 FM160600 29006KT P6SM VCSH SCT015 OVC025 FM160900 34004KT P6SM SCT250
KLGB 
11nm SE 
151740Z 1518/1618 VRB03KT P6SM BKN035 BKN200 FM152100 23009KT P6SM VCSH OVC025 FM152300 24007KT 4SM -SHRA BR SCT015 OVC025 FM160300 26012KT P6SM -SHRA SCT015 OVC025 FM160900 29011KT P6SM VCSH SCT030 BKN250 FM161200 30007KT P6SM SCT250
KBUR 
17nm N 
151740Z 1518/1618 16005KT P6SM VCSH SCT030 BKN200 FM152000 17010KT P6SM -SHRA OVC025 FM152300 19006KT 4SM -SHRA BR SCT015 OVC025 FM160600 33015KT P6SM VCSH OVC025 FM160900 33008KT P6SM SCT250
KSLI 
18nm SE 
151308Z 1513/1619 VRB06KT 9999 FEW018 QNH3002INS BECMG 1523/1524 22012G18KT 9000 -SHRA BKN025 QNH3007INS BECMG 1604/1605 27006KT 9999 NSW BKN030 510043 QNH3010INS BECMG 1608/1609 VRB06KT 9999 SCT025 510043 QNH3007INS TX14/1522Z TN07/1515Z
KVNY 
19nm NW 
151740Z 1518/1618 VRB03KT P6SM VCSH SCT030 BKN200 FM152000 18008KT P6SM -SHRA OVC025 FM152300 22005KT 4SM -SHRA BR SCT015 OVC025 FM160600 35006KT P6SM VCSH OVC025 FM160900 35010KT P6SM SCT250
NOTAMs
Click for the latest NOTAMs
NOTAMs are issued by the DoD/FAA and will open in a separate window not controlled by AirNav.

 

 
 

FBO, Fuel Providers, and Aircraft Ground Support

  
 Business Name 
 
 Contact 
 
 Services / Description 
 
Fuel Prices
 
Comments
  
Jet Center Los Angeles
UVair FBO Network
123.30
310-676-4673
[web site]
[email]
Airport management, Aviation fuel, Aircraft parking (ramp or tiedown), Hangars, Hangar leasing / sales, GPU / Power cart, Passenger terminal and lounge, ...
More info and photos of Jet Center Los Angeles
 
AirBoss™ fuel program   NATA Safety 1st   CJP FuelAdvantage   UVair   Crew cars   Courtesy shuttle   Go Rentals   National Business Aviation Association  
 
EPIC
100LL Jet A
FS $5.55 $6.32 
SS $4.55 --- 
GUARANTEED
AirBossMEMBERS
ONLY
Discounts
LoginJoin
 
   9 read write
Hawthorne Hangar Operations ASRI 128.85
310-644-0400
[email]
ABOUT HAWTHORNE HANGAR OPERATIONS
Hawthorne Hangar Operations (HHO) is a new full-service FBO centrally located on the Hawthorne Municipal Airport field in the Wolfe Air hangar facility (turnout Delta on runway 7-25). Offering both Jet A and Avgas, HHO began operations as KHHR's CAA-preferred FBO on August 1, 2017. HHO offers all the amenities discerning guests expect from a customer-centric FBO, complete with concierge services for every client. Guests can now fly in and fuel up with the options of full service with a jet fuel truck or assisted self-service at self service station.
More info and photos of Hawthorne Hangar Operations
 
U.S. Government AIR Card   CAA Preferred FBO   Avfuel Contract Fuel   UVair   World Fuel | Colt Contract Fuel   AVTRIP   Contract Fuel   Crew cars   Courtesy shuttle   Enterprise Rent-A-Car   Go Rentals   Hertz   National Business Aviation Association  
 
Avfuel
100LL Jet A
FS $4.31 $4.86 
GUARANTEED
 
   44 read write
FS=Full service
SS=Self service
Update Fuel Prices
 

Aviation Businesses, Services, and Facilities

  
 Business Name 
 
 Contact 
 
 Services / Description 
 
Distance
 
Comments
  
Leading Edge Avionics
Leading Edge Avionics
toll-free 1-855-955-6151
[web site]
[email]

Like us on facebook See us on instagram Follow us on twitter
Leading Edge Avionics is a FAA Certified Part 145 Repair Station (137R236D) that provides outstanding avionics repair and installation services for all General Aviation aircraft from business jets to helicopters to single engine airplanes. We are committed to delivering our customers with services that ensure uncompromised safety and the highest quality of workmanship and reliability, while exceeding our clients' expectations on all levels. 24/7 AOG Service is also available at all Southern California airports, so call us at (855) 955-6151 and let us exceed all your service expectations!
More info and photos of Leading Edge Avionics
located at KSNA  
   write
 Star Helicopters
310-355-1959
[web site]
[email]
Flight training, Aerial tours / aerial sightseeing, Aerial photography, Aviation accessories, Aircraft sales / leasing / brokerage, Pilot supplies, Computerized weather, Restrooms

More info about Star Helicopters
on airport  
   write
 

Getting Around: Taxi, Limo, Rental Cars, Mass Transit

  
 Business Name 
 
 Contact 
 
Services / Description
 
Comments
  
MTA Metro Rail, Green Line 213-620-7245
no information available

If you are affiliated with MTA Metro Rail, Green Line and would like to show here your services, contact info, web link, logo, and more, click here
 
   write
 

Would you like to see your business listed on this page?

 If your business provides an interesting product or service to pilots, flight crews, aircraft, or users of the Jack Northrop Field/Hawthorne Municipal Airport, you should consider listing it here.  To start the listing process, click on the button below
 
Add a business
 

Other Pages about Jack Northrop Field/Hawthorne Municipal Airport

www.cityofhawthorne.com/...
 
Update a link
 
Copyright © AirNav, LLC. All rights reserved. Privacy Policy  Contact